Location: Étang Rond
(42.7927°N, 1.0661°E)
Time: 23:22:35
(UTC+00:00)

Cosmos 1727 Rocket - Pass Details

Date: 08 November 2025
Orbit: 961 x 995 km, 82.9° (Epoch: 13 December)

Event Time Altitude Azimuth Distance (km) Brightness Sun altitude
Rises 04:51:45 0° 208° (SSW) 3,633 6.8 -19.9°
Reaches altitude 10° 04:54:23 10° 215° (SW) 2,693 6.0 -19.4°
Maximum altitude 05:00:10 41° 285° (WNW) 1,369 4.3 -18.3°
Drops below altitude 10° 05:06:01 10° 354° (N) 2,726 6.2 -17.3°
Sets 05:08:43 0° 2° (N) 3,683 7.0 -16.8°
